Location: Unspecified
(48.2082°N, 0.0000°E)
Time: 02:36:13
(UTC+00:00)

Courier 1B Rocket - All Passes

Search period start: 18 June 2019 00:00
Search period end: 28 June 2019 00:00
Orbit: 920 x 1202 km, 28.2° (Epoch: 16 June)

Date Brightness Start Highest point End Pass type
(mag) Time Alt. Az. Time Alt. Az. Time Alt. Az.
18 Jun - 07:54:26 10° SSW 07:56:12 11° S 07:58:00 10° SSE daylight
19 Jun - 06:53:53 10° SSW 06:55:39 11° S 06:57:24 10° SSE daylight
20 Jun - 05:53:50 10° S 05:55:04 11° S 05:56:18 10° SSE daylight
20 Jun - 07:45:38 10° SSW 07:47:04 11° S 07:48:30 10° S daylight
21 Jun - 06:44:25 10° SSW 06:46:30 12° S 06:48:34 10° SSE daylight
22 Jun - 05:43:38 10° SSW 05:45:54 12° S 05:48:09 10° SSE daylight
23 Jun - 04:43:13 10° SSW 04:45:18 11° S 04:47:21 10° SSE daylight
23 Jun - 06:35:26 10° SSW 06:37:20 11° S 06:39:12 10° S daylight
24 Jun - 03:43:30 10° S 03:44:40 10° SSE 03:45:50 10° SSE daylight
24 Jun - 05:34:08 10° SSW 05:36:45 12° S 05:39:18 10° SSE daylight
25 Jun - 04:33:13 10° SSW 04:36:07 13° S 04:38:57 10° SSE daylight
25 Jun - 06:27:24 10° SSW 06:28:09 10° SSW 06:28:53 10° S daylight
26 Jun - 03:32:38 10° SSW 03:35:27 13° S 03:38:13 10° SSE daylight
26 Jun - 05:25:03 10° SSW 05:27:33 12° S 05:30:00 10° SSE daylight
27 Jun - 02:32:30 10° S 02:34:46 12° SSE 02:37:02 10° SSE visible
27 Jun - 04:23:44 10° SSW 04:26:55 13° S 04:30:01 10° SSE daylight
